FLOCK 2K-38 (42868 NORAD) Tracking and Keplerian Element Data

This shows tracking and keplerian element data for the satellite.

Feedback or suggestion? Click here.




ElementValue
Catalog42868
NameFLOCK 2K-38
Epoch Orbit15573
Epoch Day114.91217692
Epoch Year2020
RAAN346.1857
Inclination96.8996
Eccentricity0.0009556
Argument of Perigee157.6069
Mean Anonmoly202.5599
Mean Motion15.4233133
Decay Rate5.971E-05
L11 42868U 17042AV 20114.91217692 .00005971 00000-0 14019-3 0 9997
L22 42868 96.8996 346.1857 0009556 157.6069 202.5599 15.42331330155738



Live tracking and technical data element details for FLOCK 2K-38 (NORAD 42868). FLOCK 2K-38 can be tracked NOW for your location showing map with azimuth and elevation plus other details from your city location.







IsCatalogInMostPopularTable: catalog: 42868, numindb: 512
Update: records affected: 1



GetName: 42868 FLOCK 2K-38

Hit Count: updated at: Thu, 15 May 2025 18:39:32 GMT